User: anonymous   Login
Location: Moonridge Observatory
(39.2268°N, 77.7914°W)
Time: 15:14:32
(UTC-04:00)
Language:

CZ-2C R/B - Orbit

View from above orbital plane
View from above orbital plane
View from above satellite
View from above satellite

Ground track
Ground track

The orbit data is extracted from the following two-line orbital elements,

1 28480U 04046B   15143.83896141  .00000096  00000-0  52404-4 0  9994
2 28480 098.1368 279.4987 0141093 294.9012 229.9094 14.25499994546613
Epoch (UTC): 23 May 2015 20:08:06
Eccentricity: 0.0141093
inclination: 98.1368°
perigee height: 705 km
apogee height: 908 km
right ascension of ascending node: 279.4987°
argument of perigee: 294.9012°
revolutions per day: 14.25499994
mean anomaly at epoch: 229.9094°
orbit number at epoch: 54661

The dashed part of the orbit path shows where the satellite is in the earth's shadow,  

DLR